| time (UTC) | temp F | wind direction | speed MPH | gust MPH | rain 1hr in | rain 24hr in | rain mn in | humidity % | barometer mb |
| 20260504034519 | 52 | 98 | 3.0 | 9.0 | 0.00 | 0.00 | 0.00 | 36 | 1010.1 |
| 20260504033016 | 52 | 316 | 4.0 | 9.0 | 0.00 | 0.00 | 0.00 | 35 | 1009.9 |
| 20260504031514 | 53 | 299 | 4.0 | 12.0 | 0.00 | 0.00 | 0.00 | 35 | 1009.6 |
| 20260504030013 | 54 | 321 | 4.0 | 13.0 | 0.00 | 0.00 | 0.00 | 35 | 1009.3 |
| 20260504024510 | 54 | 33 | 4.0 | 11.0 | 0.00 | 0.00 | 0.00 | 36 | 1008.9 |
| 20260504023009 | 54 | 37 | 3.0 | 10.0 | 0.00 | 0.00 | 0.00 | 40 | 1008.8 |
| 20260504021507 | 54 | 65 | 4.0 | 10.0 | 0.00 | 0.00 | 0.00 | 40 | 1008.7 |
| 20260504020009 | 55 | 43 | 3.0 | 8.0 | 0.00 | 0.00 | 0.00 | 40 | 1008.6 |
| 20260504014506 | 55 | 40 | 3.0 | 12.0 | 0.00 | 0.00 | 0.00 | 39 | 1008.5 |
| 20260504013002 | 56 | 349 | 4.0 | 13.0 | 0.00 | 0.00 | 0.00 | 37 | 1008.3 |
| 20260504011605 | 57 | 49 | 2.0 | 14.0 | 0.00 | 0.00 | 0.00 | 38 | 1007.9 |
| 20260504010101 | 57 | 338 | 4.0 | 9.0 | 0.00 | 0.00 | 0.00 | 38 | 1007.7 |
| 20260504004559 | 57 | 86 | 4.0 | 11.0 | 0.00 | 0.00 | 0.00 | 38 | 1007.8 |
| 20260504003100 | 57 | 302 | 3.0 | 10.0 | 0.00 | 0.00 | 0.00 | 39 | 1007.6 |
| 20260504001606 | 57 | 20 | 4.0 | 13.0 | 0.00 | 0.00 | 0.00 | 39 | 1007.5 |
| 20260504000055 | 58 | 286 | 4.0 | 12.0 | 0.00 | 0.00 | 0.00 | 39 | 1007.3 |
| 20260503234553 | 58 | 60 | 3.0 | 11.0 | 0.00 | 0.00 | 0.00 | 38 | 1007.1 |
| 20260503233052 | 59 | 91 | 5.0 | 12.0 | 0.00 | 0.00 | 0.00 | 36 | 1007.0 |
| 20260503231550 | 59 | 49 | 6.0 | 12.0 | 0.00 | 0.00 | 0.00 | 36 | 1006.7 |
| 20260503230050 | 60 | 44 | 4.0 | 10.0 | 0.00 | 0.00 | 0.00 | 35 | 1006.6 |
| 20260503224550 | 60 | 59 | 6.0 | 15.0 | 0.00 | 0.00 | 0.00 | 34 | 1006.4 |
| 20260503223049 | 61 | 39 | 4.0 | 11.0 | 0.00 | 0.00 | 0.00 | 34 | 1006.3 |
| 20260503221548 | 61 | 67 | 3.0 | 10.0 | 0.00 | 0.00 | 0.00 | 34 | 1006.4 |
| 20260503220052 | 60 | 316 | 4.0 | 14.0 | 0.00 | 0.00 | 0.00 | 33 | 1006.3 |
| 20260503214547 | 60 | 241 | 4.0 | 10.0 | 0.00 | 0.00 | 0.00 | 34 | 1006.2 |
| 20260503213052 | 60 | 295 | 3.0 | 12.0 | 0.00 | 0.00 | 0.00 | 35 | 1006.2 |
| 20260503211545 | 60 | 301 | 4.0 | 14.0 | 0.00 | 0.00 | 0.00 | 35 | 1006.3 |
| 20260503210052 | 61 | 96 | 4.0 | 9.0 | 0.00 | 0.00 | 0.00 | 35 | 1006.3 |
| 20260503204545 | 61 | 24 | 4.0 | 12.0 | 0.00 | 0.00 | 0.00 | 35 | 1006.3 |
| 20260503203051 | 61 | 49 | 3.0 | 13.0 | 0.00 | 0.00 | 0.00 | 35 | 1006.2 |
| 20260503201544 | 61 | 53 | 4.0 | 9.0 | 0.00 | 0.00 | 0.00 | 34 | 1006.2 |
| 20260503200048 | 61 | 347 | 5.0 | 15.0 | 0.00 | 0.00 | 0.00 | 32 | 1006.1 |
| 20260503194543 | 62 | 40 | 8.0 | 18.0 | 0.00 | 0.00 | 0.00 | 32 | 1005.8 |
| 20260503193047 | 63 | 316 | 4.0 | 10.0 | 0.00 | 0.00 | 0.00 | 31 | 1005.8 |
| 20260503191541 | 64 | 308 | 5.0 | 12.0 | 0.00 | 0.00 | 0.00 | 30 | 1005.6 |
| 20260503190040 | 65 | 343 | 5.0 | 13.0 | 0.00 | 0.00 | 0.00 | 31 | 1005.6 |
| 20260503184551 | 64 | 294 | 4.0 | 10.0 | 0.00 | 0.00 | 0.00 | 31 | 1005.7 |
| 20260503183052 | 65 | 272 | 3.0 | 14.0 | 0.00 | 0.00 | 0.00 | 31 | 1005.8 |
| 20260503181537 | 65 | 301 | 5.0 | 11.0 | 0.00 | 0.00 | 0.00 | 30 | 1005.7 |
| 20260503180036 | 64 | 34 | 4.0 | 12.0 | 0.00 | 0.00 | 0.00 | 32 | 1005.7 |
| 20260503174534 | 64 | 43 | 5.0 | 11.0 | 0.00 | 0.00 | 0.00 | 32 | 1005.8 |
| 20260503173032 | 64 | 290 | 5.0 | 12.0 | 0.00 | 0.00 | 0.00 | 32 | 1005.8 |
| 20260503171529 | 64 | 44 | 3.0 | 11.0 | 0.00 | 0.00 | 0.00 | 35 | 1005.8 |
| 20260503081609 | 53 | 209 | 0.0 | 1.0 | 0.00 | 0.00 | 0.00 | 45 | 1006.5 |
| 20260503071530 | 55 | 210 | 0.0 | 1.0 | 0.00 | 0.00 | 0.00 | 43 | 1006.8 |
| 20260503054517 | 58 | 202 | 0.0 | 0.0 | 0.00 | 0.00 | 0.00 | 39 | 1006.3 |
| 20260503053016 | 57 | 169 | 0.0 | 0.0 | 0.00 | 0.00 | 0.00 | 43 | 1006.4 |
| 20260503051516 | 57 | 169 | 0.0 | 0.0 | 0.00 | 0.00 | 0.00 | 43 | 1006.4 |
| 20260503050028 | 57 | 169 | 0.0 | 0.0 | 0.00 | 0.00 | 0.00 | 44 | 1006.4 |
| 20260503044516 | 57 | 169 | 0.0 | 0.0 | 0.00 | 0.00 | 0.00 | 43 | 1006.4 |
| 20260503043017 | 57 | 169 | 0.0 | 0.0 | 0.00 | 0.00 | 0.00 | 43 | 1006.4 |
| 20260503041514 | 58 | 169 | 0.0 | 0.0 | 0.00 | 0.00 | 0.00 | 40 | 1006.2 |
| 20260503040013 | 59 | 169 | 0.0 | 0.0 | 0.00 | 0.00 | 0.00 | 39 | 1006.1 |